• Em Portugal
  • Lista de países
  • Para 7 dias
  • Temperatura da água
  • Mapas de satélite
  • Mapa do tempo
  • Widgets de tempo
  • user-avatar
    Iniciar Sessão

    Previsão horária em Shuhovcy

    Hoje, 16 Julho, Segunda-feira

    Tempo Temperatura Precipitação Vento Pressão Humidade
    00:00 +18°C° 0 mm 2 m/s 740 mmHg 93%
    01:00 +18°C° 0 mm 2 m/s 740 mmHg 93%
    02:00 +18°C° 0 mm 1 m/s 740 mmHg 95%
    03:00 +17°C° 0,2 mm 2 m/s 740 mmHg 95%
    04:00 +18°C° 0,2 mm 2 m/s 740 mmHg 95%
    05:00 +18°C° 0,2 mm 3 m/s 740 mmHg 96%
    06:00 +18°C° 0,6 mm 3 m/s 740 mmHg 95%
    07:00 +19°C° 0,6 mm 3 m/s 740 mmHg 95%
    08:00 +20°C° 0 mm 4 m/s 740 mmHg 94%
    09:00 +21°C° 0,7 mm 4 m/s 740 mmHg 90%
    10:00 +22°C° 0,7 mm 4 m/s 740 mmHg 86%
    11:00 +25°C° 0,7 mm 4 m/s 740 mmHg 83%
    12:00 +25°C° 0,7 mm 4 m/s 739 mmHg 84%
    13:00 +25°C° 0,7 mm 5 m/s 739 mmHg 83%
    14:00 +26°C° 0,7 mm 5 m/s 739 mmHg 82%
    15:00 +26°C° 0,5 mm 4 m/s 739 mmHg 83%
    16:00 +26°C° 0,5 mm 4 m/s 739 mmHg 84%
    17:00 +25°C° 0,5 mm 4 m/s 739 mmHg 86%
    18:00 +25°C° 0,8 mm 4 m/s 739 mmHg 87%
    19:00 +23°C° 0,8 mm 4 m/s 738 mmHg 89%
    20:00 +22°C° 0,8 mm 4 m/s 738 mmHg 90%
    21:00 +21°C° 1,2 mm 4 m/s 738 mmHg 91%
    22:00 +21°C° 1,2 mm 4 m/s 738 mmHg 93%
    23:00 +20°C° 1,2 mm 4 m/s 738 mmHg 94%

    Amanhã, 17 Julho, Terça-feira

    Tempo Temperatura Precipitação Vento Pressão Humidade
    00:00 +20°C° 0 mm 4 m/s 738 mmHg 94%
    01:00 +20°C° 0 mm 4 m/s 738 mmHg 95%
    02:00 +20°C° 0 mm 4 m/s 738 mmHg 95%
    03:00 +19°C° 0,1 mm 4 m/s 738 mmHg 96%
    04:00 +19°C° 0,1 mm 4 m/s 737 mmHg 96%
    05:00 +19°C° 0,1 mm 5 m/s 737 mmHg 96%
    06:00 +20°C° 0,2 mm 5 m/s 737 mmHg 94%
    07:00 +21°C° 0,2 mm 5 m/s 737 mmHg 91%
    08:00 +22°C° 0,2 mm 6 m/s 737 mmHg 89%
    09:00 +24°C° 0,7 mm 6 m/s 737 mmHg 84%
    10:00 +26°C° 0,7 mm 6 m/s 737 mmHg 80%
    11:00 +27°C° 0,7 mm 6 m/s 737 mmHg 75%
    12:00 +28°C° 0,6 mm 6 m/s 737 mmHg 75%
    13:00 +28°C° 0,6 mm 6 m/s 737 mmHg 75%
    14:00 +28°C° 0,6 mm 5 m/s 737 mmHg 75%
    15:00 +28°C° 0,7 mm 5 m/s 737 mmHg 78%
    16:00 +27°C° 0,7 mm 4 m/s 737 mmHg 81%
    17:00 +27°C° 0,7 mm 4 m/s 737 mmHg 84%
    18:00 +26°C° 0,5 mm 4 m/s 737 mmHg 86%
    19:00 +25°C° 0,5 mm 4 m/s 737 mmHg 87%
    20:00 +22°C° 0,5 mm 4 m/s 737 mmHg 89%
    21:00 +22°C° 0 mm 4 m/s 737 mmHg 91%
    22:00 +21°C° 0 mm 4 m/s 737 mmHg 92%
    23:00 +20°C° 0 mm 4 m/s 737 mmHg 93%

    Depois de amanhã, 18 Julho, Quarta-feira

    Tempo Temperatura Precipitação Vento Pressão Humidade
    00:00 +20°C° 0 mm 4 m/s 737 mmHg 94%
    01:00 +20°C° 0 mm 4 m/s 736 mmHg 95%
    02:00 +20°C° 0 mm 4 m/s 736 mmHg 95%
    03:00 +19°C° 0 mm 4 m/s 736 mmHg 95%
    04:00 +19°C° 0 mm 4 m/s 736 mmHg 95%
    05:00 +19°C° 0 mm 4 m/s 736 mmHg 96%
    06:00 +20°C° 0 mm 4 m/s 736 mmHg 93%
    07:00 +21°C° 0 mm 5 m/s 736 mmHg 91%
    08:00 +22°C° 0 mm 5 m/s 736 mmHg 88%
    09:00 +22°C° 0 mm 5 m/s 736 mmHg 87%
    10:00 +23°C° 0 mm 5 m/s 736 mmHg 85%
    11:00 +23°C° 0 mm 5 m/s 737 mmHg 83%
    12:00 +25°C° 0,1 mm 5 m/s 736 mmHg 82%
    13:00 +25°C° 0,1 mm 5 m/s 736 mmHg 80%
    14:00 +26°C° 0,1 mm 5 m/s 736 mmHg 78%
    15:00 +26°C° 0,4 mm 5 m/s 736 mmHg 78%
    16:00 +26°C° 0,4 mm 4 m/s 736 mmHg 77%
    17:00 +26°C° 0,4 mm 4 m/s 736 mmHg 77%
    18:00 +25°C° 0,1 mm 4 m/s 736 mmHg 81%
    19:00 +22°C° 0,1 mm 3 m/s 736 mmHg 85%
    20:00 +21°C° 0,1 mm 3 m/s 736 mmHg 89%
    21:00 +20°C° 0 mm 3 m/s 736 mmHg 91%
    22:00 +20°C° 0 mm 3 m/s 736 mmHg 93%
    23:00 +19°C° 0 mm 3 m/s 736 mmHg 95%

    19 Julho, Quinta-feira

    Tempo Temperatura Precipitação Vento Pressão Humidade
    00:00 +19°C° 0,1 mm 3 m/s 736 mmHg 95%
    01:00 +19°C° 0,1 mm 3 m/s 736 mmHg 96%
    02:00 +19°C° 0,1 mm 3 m/s 736 mmHg 96%
    03:00 +19°C° 0,1 mm 3 m/s 736 mmHg 96%
    04:00 +19°C° 0,1 mm 3 m/s 736 mmHg 96%
    05:00 +19°C° 0,1 mm 3 m/s 736 mmHg 97%
    06:00 +19°C° 0,3 mm 3 m/s 736 mmHg 95%
    07:00 +20°C° 0,3 mm 3 m/s 736 mmHg 93%
    08:00 +20°C° 0,3 mm 3 m/s 736 mmHg 92%
    09:00 +21°C° 1,1 mm 4 m/s 736 mmHg 90%
    10:00 +22°C° 1,1 mm 4 m/s 736 mmHg 88%
    11:00 +23°C° 1,1 mm 4 m/s 736 mmHg 86%
    12:00 +23°C° 1,3 mm 4 m/s 736 mmHg 86%
    13:00 +23°C° 1,3 mm 5 m/s 736 mmHg 86%
    14:00 +23°C° 1,3 mm 5 m/s 736 mmHg 86%
    15:00 +23°C° 0,8 mm 5 m/s 736 mmHg 86%
    16:00 +23°C° 0,8 mm 4 m/s 736 mmHg 86%
    17:00 +23°C° 0,8 mm 4 m/s 736 mmHg 86%
    18:00 +22°C° 0,4 mm 4 m/s 736 mmHg 89%
    19:00 +21°C° 0,4 mm 3 m/s 736 mmHg 91%
    20:00 +20°C° 0,4 mm 3 m/s 736 mmHg 93%
    21:00 +19°C° 0 mm 3 m/s 736 mmHg 94%
    22:00 +19°C° 0 mm 3 m/s 736 mmHg 95%
    23:00 +18°C° 0 mm 2 m/s 736 mmHg 97%

    20 Julho, Sexta-feira

    Tempo Temperatura Precipitação Vento Pressão Humidade
    00:00 +18°C° 0 mm 2 m/s 736 mmHg 97%
    01:00 +17°C° 0 mm 2 m/s 736 mmHg 97%
    02:00 +17°C° 0 mm 2 m/s 736 mmHg 98%
    03:00 +17°C° 0 mm 2 m/s 736 mmHg 98%
    04:00 +17°C° 0 mm 2 m/s 736 mmHg 98%
    05:00 +17°C° 0 mm 2 m/s 736 mmHg 98%
    06:00 +18°C° 0 mm 2 m/s 736 mmHg 96%
    07:00 +19°C° 0 mm 2 m/s 736 mmHg 94%
    08:00 +20°C° 0 mm 2 m/s 736 mmHg 92%
    09:00 +21°C° 0,1 mm 2 m/s 736 mmHg 88%
    10:00 +23°C° 0,1 mm 1 m/s 736 mmHg 84%
    11:00 +24°C° 0,1 mm 1 m/s 736 mmHg 80%
    12:00 +25°C° 0,1 mm 1 m/s 736 mmHg 76%
    13:00 +26°C° 0,1 mm 1 m/s 736 mmHg 73%
    14:00 +25°C° 0,1 mm 0 m/s 736 mmHg 69%
    15:00 +25°C° 0,6 mm 0 m/s 736 mmHg 71%
    16:00 +25°C° 0,6 mm 0 m/s 736 mmHg 73%
    17:00 +24°C° 0,6 mm 0 m/s 736 mmHg 74%
    18:00 +23°C° 0,4 mm 0 m/s 736 mmHg 79%
    19:00 +22°C° 0,4 mm 0 m/s 736 mmHg 83%
    20:00 +20°C° 0,4 mm 0 m/s 736 mmHg 88%
    21:00 +20°C° 0,1 mm 0 m/s 736 mmHg 89%
    22:00 +19°C° 0,1 mm 0 m/s 736 mmHg 90%
    23:00 +18°C° 0,1 mm 0 m/s 736 mmHg 92%

    21 Julho, Sábado

    Tempo Temperatura Precipitação Vento Pressão Humidade
    00:00 +18°C° 0 mm 0 m/s 736 mmHg 92%
    01:00 +20°C° 0 mm 1 m/s 736 mmHg 93%
    02:00 +20°C° 0 mm 1 m/s 736 mmHg 94%
    03:00 +20°C° 0 mm 1 m/s 736 mmHg 94%
    04:00 +20°C° 0 mm 1 m/s 736 mmHg 95%
    05:00 +20°C° 0 mm 1 m/s 736 mmHg 95%
    06:00 +21°C° 0 mm 1 m/s 736 mmHg 92%
    07:00 +23°C° 0 mm 1 m/s 736 mmHg 88%
    08:00 +24°C° 0 mm 1 m/s 736 mmHg 85%
    09:00 +25°C° 0,3 mm 1 m/s 736 mmHg 81%
    10:00 +26°C° 0,3 mm 1 m/s 736 mmHg 77%
    11:00 +27°C° 0,3 mm 1 m/s 736 mmHg 73%
    12:00 +27°C° 0,4 mm 1 m/s 736 mmHg 72%
    13:00 +28°C° 0,4 mm 1 m/s 736 mmHg 71%
    14:00 +28°C° 0,4 mm 1 m/s 736 mmHg 70%
    15:00 +28°C° 0,5 mm 1 m/s 736 mmHg 70%
    16:00 +28°C° 0,5 mm 1 m/s 736 mmHg 71%
    17:00 +28°C° 0,5 mm 1 m/s 736 mmHg 72%
    18:00 +26°C° 0,7 mm 1 m/s 735 mmHg 77%
    19:00 +25°C° 0,7 mm 1 m/s 735 mmHg 83%
    20:00 +24°C° 0,7 mm 1 m/s 735 mmHg 89%
    21:00 +23°C° 0,1 mm 1 m/s 735 mmHg 90%
    22:00 +22°C° 0,1 mm 1 m/s 735 mmHg 91%
    23:00 +22°C° 0,1 mm 1 m/s 735 mmHg 93%
    Mostrar mais